User: anonymous   Login
Location: L'Union
(43.6635°N, 1.4699°E)
Time: 14:04:01
(UTC+02:00)
Language:

STARS - Orbit

View from above orbital plane
View from above orbital plane
View from above satellite
View from above satellite

Ground track
Ground track

The orbit data is extracted from the following two-line orbital elements,

1 33498U 09002G   21295.68825386  .00000415  00000-0  62968-4 0  9998
2 33498  98.1934 178.3589 0009801 301.8255  58.2001 14.79452554686277
Epoch (UTC): 22 October 2021 16:31:05
Eccentricity: 0.0009801
inclination: 98.1934°
perigee height: 624 km
apogee height: 638 km
right ascension of ascending node: 178.3589°
argument of perigee: 301.8255°
revolutions per day: 14.79452554
mean anomaly at epoch: 58.2001°
orbit number at epoch: 68627

The dashed part of the orbit path shows where the satellite is in the earth's shadow,  

DLR